Weather History for Darlington, SC

Change the Weather History Date:

Saturday, February 16, 2013

  Actual Average (KFLO) Record (KFLO)
Temperature  
Mean Temperature 38 °F 49 °F  
Max Temperature 44 °F 60 °F 85 °F (1990)
Min Temperature 32 °F 38 °F 17 °F (1991)
Degree Days  
Heating Degree Days 26 16  
Month to date heating degree days 284  
Since 1 July heating degree days 1886  
Cooling Degree Days 0 0  
Month to date cooling degree days 0  
Year to date cooling degree days 2  
Moisture  
Dew Point 32 °F    
Average Humidity 79    
Maximum Humidity 93    
Minimum Humidity 65    
Precipitation  
Precipitation 0.18 in 0.11 in 1.43 in (1982)
Month to date precipitation 1.63  
Year to date precipitation 4.86  
Sea Level Pressure  
Sea Level Pressure 29.92 in    
Wind  
Wind Speed 8 mph (NNW)    
Max Wind Speed 17 mph    
Max Gust Speed 26 mph    
T = Trace of Precipitation, MM = Missing Value Source: NWS Daily Summary

Daily Weather History Graph

Daily Weather History Graph

Search for Another Location

Airport:

Trip Planner

Search our weather history database for the weather conditions in past years. The results will help you decide how hot, cold, wet, or windy it might be!

Date:

Astronomy

Feb. 16, 2013 Rise Set
Actual Time 7:03 AM EST 6:04 PM EST
Civil Twilight 6:37 AM EST 6:29 PM EST
Nautical Twilight 6:08 AM EST 6:59 PM EST
Astronomical Twilight 5:39 AM EST 7:28 PM EST
Moon 10:34 AM EST (2/16) No Moon Set
Length of Visible Light 11h 52m
Length of Day
11h 00m
Waxing Crescent, 39% of the Moon is Illuminated
Feb 16
Waxing Crescent
Feb 17
First Quarter
Feb 25
Full
Mar 4
Last Quarter
Mar 11
New

Hourly Weather History & Observations

Time (EST) Temp. Windchill Dew Point Humidity Pressure Visibility Wind Dir Wind Speed Gust Speed Precip Events Conditions
12:15 AM 44.6 °F 40.7 °F 35.6 °F 71% 29.95 in - SSW 6.9 mph - N/A   Clear
12:35 AM 44.6 °F 40.7 °F 37.4 °F 76% 29.95 in - SSW 6.9 mph - N/A   Clear
12:55 AM 42.8 °F 38.6 °F 37.4 °F 81% 29.94 in - SW 6.9 mph - N/A   Clear
1:15 AM 42.8 °F 38.0 °F 35.6 °F 76% 29.96 in - NNW 8.1 mph 17.3 mph N/A   Clear
1:35 AM 42.8 °F 39.3 °F 35.6 °F 76% 29.95 in - West 5.8 mph - N/A   Clear
1:55 AM 42.8 °F 38.6 °F 35.6 °F 76% 29.95 in - West 6.9 mph - N/A   Clear
2:15 AM 44.6 °F 39.7 °F 33.8 °F 66% 29.95 in - NNW 9.2 mph - N/A   Clear
2:35 AM 42.8 °F 38.0 °F 33.8 °F 70% 29.95 in - North 8.1 mph - N/A   Clear
2:55 AM 42.8 °F 37.0 °F 33.8 °F 70% 29.95 in - NNW 10.4 mph - N/A   Clear
3:15 AM 42.8 °F 38.0 °F 33.8 °F 70% 29.95 in - North 8.1 mph - N/A   Clear
3:35 AM 42.8 °F 38.6 °F 35.6 °F 76% 29.95 in - North 6.9 mph - N/A   Clear
3:55 AM 41.0 °F 36.4 °F 35.6 °F 81% 29.95 in - North 6.9 mph - N/A   Clear
4:15 AM 39.2 °F 35.0 °F 35.6 °F 87% 29.93 in - NNE 5.8 mph - N/A   Unknown
4:35 AM 39.2 °F 34.2 °F 35.6 °F 87% 29.93 in - North 6.9 mph - N/A   Unknown
4:55 AM 39.2 °F 34.2 °F 35.6 °F 87% 29.93 in - North 6.9 mph - N/A   Unknown
5:15 AM 39.2 °F 35.0 °F 35.6 °F 87% 29.93 in - North 5.8 mph - N/A   Unknown
5:35 AM 39.2 °F 33.6 °F 32.0 °F 75% 29.92 in - NNW 8.1 mph - N/A   Clear
5:55 AM 39.2 °F 33.0 °F 32.0 °F 75% 29.92 in - North 9.2 mph - N/A   Clear
6:15 AM 39.2 °F 33.0 °F 32.0 °F 75% 29.92 in - NNW 9.2 mph - N/A   Clear
6:35 AM 39.2 °F 32.5 °F 32.0 °F 75% 29.93 in - NNW 10.4 mph - N/A   Clear
6:55 AM 39.2 °F 32.5 °F 30.2 °F 70% 29.93 in - North 10.4 mph - N/A   Clear
7:15 AM 39.2 °F 32.5 °F 32.0 °F 75% 29.92 in - North 10.4 mph - N/A   Clear
7:35 AM 39.2 °F 32.5 °F 30.2 °F 70% 29.93 in - North 10.4 mph - N/A   Partly Cloudy
7:55 AM 39.2 °F 32.0 °F 30.2 °F 70% 29.94 in - NNW 11.5 mph - N/A   Partly Cloudy
8:15 AM 39.2 °F 32.0 °F 30.2 °F 70% 29.94 in - North 11.5 mph 18.4 mph N/A   Partly Cloudy
8:35 AM 41.0 °F 34.7 °F 30.2 °F 65% 29.94 in - North 10.4 mph 19.6 mph N/A   Scattered Clouds
8:55 AM 42.8 °F 35.1 °F 33.8 °F 70% 29.93 in - North 16.1 mph - N/A   Mostly Cloudy
9:15 AM 42.8 °F 35.4 °F 33.8 °F 70% 29.93 in - North 15.0 mph - N/A   Overcast
9:35 AM 42.8 °F 34.8 °F 35.6 °F 76% 29.93 in - North 17.3 mph 20.7 mph N/A   Overcast
9:55 AM 42.8 °F 35.8 °F 33.8 °F 70% 29.93 in - North 13.8 mph 18.4 mph N/A   Overcast
10:15 AM 41.0 °F 33.5 °F 33.8 °F 76% 29.94 in - North 13.8 mph - N/A   Overcast
10:35 AM 39.2 °F 30.2 °F 33.8 °F 81% 29.94 in - NNW 17.3 mph 20.7 mph N/A   Overcast
10:55 AM 39.2 °F 30.8 °F 32.0 °F 75% 29.95 in - North 15.0 mph 20.7 mph N/A   Overcast
11:15 AM 35.6 °F 26.6 °F 30.2 °F 81% 29.96 in - NNW 13.8 mph - 0.01 in   Overcast
11:35 AM 33.8 °F 28.6 °F 28.4 °F 81% 29.95 in - NNW 5.8 mph - 0.01 in   Overcast
11:55 AM 33.8 °F 28.6 °F 28.4 °F 81% 29.95 in - NW 5.8 mph - 0.01 in   Overcast
12:15 PM 33.8 °F 27.7 °F 30.2 °F 87% 29.94 in - NW 6.9 mph - N/A   Overcast
12:35 PM 33.8 °F 28.6 °F 32.0 °F 93% 29.91 in - NNE 5.8 mph - 0.03 in   Overcast
12:55 PM 35.6 °F 29.9 °F 33.8 °F 93% 29.91 in - North 6.9 mph - 0.06 in   Unknown
1:15 PM 35.6 °F 29.9 °F 30.2 °F 81% 29.91 in - NNW 6.9 mph - 0.02 in   Overcast
1:35 PM 33.8 °F 29.6 °F 30.2 °F 87% 29.90 in - NNW 4.6 mph - 0.04 in   Overcast
1:55 PM 33.8 °F 29.6 °F 30.2 °F 87% 29.90 in - WNW 4.6 mph - 0.05 in   Overcast
2:15 PM 33.8 °F 29.6 °F 30.2 °F 87% 29.89 in - NW 4.6 mph - 0.02 in   Overcast
2:35 PM 35.6 °F 32.8 °F 30.2 °F 81% 29.88 in - NNW 3.5 mph - 0.03 in   Overcast
2:55 PM 35.6 °F 31.7 °F 33.8 °F 93% 29.86 in - ENE 4.6 mph - 0.04 in   Mostly Cloudy
3:15 PM 37.4 °F 32.1 °F 33.8 °F 87% 29.84 in - East 6.9 mph - N/A   Mostly Cloudy
3:35 PM 35.6 °F 32.8 °F 33.8 °F 93% 29.86 in - North 3.5 mph - N/A   Overcast
3:55 PM 37.4 °F 32.8 °F 32.0 °F 81% 29.86 in - NW 5.8 mph - N/A   Overcast
4:15 PM 37.4 °F 32.1 °F 33.8 °F 87% 29.86 in - WNW 6.9 mph - N/A   Overcast
4:35 PM 37.4 °F 32.1 °F 32.0 °F 81% 29.86 in - NNW 6.9 mph - N/A   Overcast
4:55 PM 37.4 °F 34.9 °F 32.0 °F 81% 29.87 in - NW 3.5 mph - N/A   Overcast
5:15 PM 37.4 °F 34.9 °F 32.0 °F 81% 29.87 in - NW 3.5 mph - N/A   Mostly Cloudy
5:35 PM 37.4 °F - 32.0 °F 81% 29.87 in - Calm Calm - N/A   Overcast
5:55 PM 37.4 °F - 33.8 °F 87% 29.87 in - Calm Calm - N/A   Unknown
6:15 PM 37.4 °F - 33.8 °F 87% 29.85 in - Calm Calm - N/A   Unknown
6:35 PM 37.4 °F 34.9 °F 33.8 °F 87% 29.87 in - North 3.5 mph - N/A   Unknown
6:55 PM 37.4 °F 30.8 °F 33.8 °F 87% 29.87 in - NNE 9.2 mph - N/A   Unknown
7:15 PM 35.6 °F 29.2 °F 33.8 °F 93% 29.88 in - NNE 8.1 mph - 0.01 in   Unknown
7:35 PM 33.8 °F 29.6 °F 30.2 °F 87% 29.89 in - North 4.6 mph - 0.02 in   Overcast
7:55 PM 33.8 °F 28.6 °F 28.4 °F 81% 29.91 in - NW 5.8 mph - 0.02 in   Overcast
8:15 PM 33.8 °F 27.7 °F 28.4 °F 81% 29.92 in - WNW 6.9 mph - N/A   Overcast
8:35 PM 33.8 °F 23.2 °F 28.4 °F 81% 29.94 in - NW 17.3 mph 24.2 mph N/A   Overcast
8:55 PM 33.8 °F 27.0 °F 28.4 °F 81% 29.94 in - NW 8.1 mph 19.6 mph N/A   Overcast
9:15 PM 33.8 °F 27.0 °F 28.4 °F 81% 29.96 in - NW 8.1 mph - N/A   Mostly Cloudy
9:35 PM 33.8 °F 27.0 °F 28.4 °F 81% 29.96 in - WNW 8.1 mph - N/A   Overcast
9:55 PM 33.8 °F 26.4 °F 28.4 °F 81% 29.97 in - West 9.2 mph - N/A   Overcast
10:15 PM 33.8 °F 23.9 °F 24.8 °F 70% 29.98 in - NNW 15.0 mph 26.5 mph N/A   Overcast
10:35 PM 33.8 °F 26.4 °F 24.8 °F 70% 29.98 in - NNW 9.2 mph - N/A   Scattered Clouds
10:55 PM 33.8 °F 29.6 °F 26.6 °F 75% 29.98 in - WNW 4.6 mph - N/A   Scattered Clouds
11:15 PM 33.8 °F 27.7 °F 26.6 °F 75% 29.99 in - WNW 6.9 mph - N/A   Scattered Clouds
11:35 PM 33.8 °F 27.7 °F 26.6 °F 75% 30.00 in - West 6.9 mph - N/A   Mostly Cloudy
11:55 PM 32.0 °F 25.6 °F 26.6 °F 80% 30.00 in - West 6.9 mph - N/A   Scattered Clouds